Location: 81360 Arifat, France
(43.7204°N, 2.3408°E)
Time: 01:48:57
(UTC+01:00)

SR - All Passes

Search period start: 06 December 2025 00:00
Search period end: 16 December 2025 00:00
Orbit: 577 x 845 km, 66.7° (Epoch: 05 December)

Date Brightness Start Highest point End Pass type
(mag) Time Alt. Az. Time Alt. Az. Time Alt. Az.
06 Dec - 01:00:37 10° W 01:03:50 20° NW 01:07:00 10° N night (unlit)
06 Dec - 07:54:33 10° NNW 07:58:49 49° NE 08:03:19 10° SE daylight
06 Dec - 09:36:59 10° WNW 09:40:10 19° WSW 09:43:29 10° SSW daylight
06 Dec - 22:24:07 10° SSE 22:27:25 21° ESE 22:30:39 10° ENE night (unlit)
07 Dec - 00:04:40 10° SW 00:08:49 41° NW 00:12:51 10° NNE night (unlit)
07 Dec - 07:00:18 10° N 07:03:51 24° NE 07:07:33 10° ESE visible
07 Dec - 08:41:26 10° NW 08:45:39 45° WSW 08:50:08 10° S daylight
07 Dec - 23:09:36 10° SSW 23:14:01 83° ESE 23:18:16 10° NNE night (unlit)
08 Dec - 00:53:53 10° WNW 00:56:13 14° NW 00:58:31 10° N night (unlit)
08 Dec - 06:06:42 10° NNE 06:08:38 13° NE 06:10:36 10° ENE visible
08 Dec - 07:46:34 10° NNW 07:50:58 77° ENE 07:55:40 10° SE daylight
08 Dec - 09:30:19 10° W 09:32:05 12° WSW 09:33:53 10° SW daylight
08 Dec - 22:15:26 10° S 22:19:24 33° ESE 22:23:13 10° NE night (unlit)
08 Dec - 23:57:19 10° WSW 00:01:03 27° NW 00:04:42 10° N night (unlit)
09 Dec - 06:52:05 10° NNW 06:56:07 34° NE 07:00:21 10° ESE visible
09 Dec - 08:33:50 10° NW 08:37:40 28° WSW 08:41:42 10° S daylight
09 Dec - 21:22:44 10° SE 21:24:57 14° ESE 21:27:09 10° ENE night (unlit)
09 Dec - 23:01:47 10° SW 23:06:07 61° WNW 23:10:19 10° NNE night (unlit)
10 Dec - 05:58:02 10° N 06:01:01 18° NE 06:04:07 10° E visible
10 Dec - 07:38:40 10° NW 07:43:04 68° WSW 07:47:46 10° SSE visible
10 Dec - 22:07:08 10° SSW 22:11:24 54° ESE 22:15:33 10° NE night (unlit)
10 Dec - 23:50:14 10° W 23:53:20 19° NW 23:56:24 10° N night (unlit)
11 Dec - 06:43:59 10° NNW 06:48:18 52° NE 06:52:53 10° SE visible
11 Dec - 08:26:31 10° WNW 08:29:37 18° WSW 08:32:51 10° SSW daylight
11 Dec - 21:13:28 10° SSE 21:16:52 22° ESE 21:20:10 10° ENE night (unlit)
11 Dec - 22:54:13 10° WSW 22:58:16 38° NW 23:02:16 10° NNE night (unlit)
12 Dec - 05:49:40 10° N 05:53:20 25° NE 05:57:10 10° ESE visible
12 Dec - 07:30:54 10° NW 07:35:06 42° WSW 07:39:36 10° S visible
12 Dec - 21:59:04 10° SSW 22:03:27 88° SE 22:07:42 10° NNE night (unlit)
12 Dec - 23:43:33 10° WNW 23:45:42 13° NW 23:47:50 10° N night (unlit)
13 Dec - 04:55:57 10° N 04:58:08 13° NE 05:00:21 10° ENE visible
13 Dec - 06:35:58 10° NNW 06:40:25 82° ENE 06:45:11 10° SSE visible
13 Dec - 08:20:01 10° W 08:21:31 11° WSW 08:23:03 10° SW daylight
13 Dec - 21:04:50 10° S 21:08:49 35° ESE 21:12:41 10° NE night (unlit)
13 Dec - 22:46:52 10° WSW 22:50:30 26° NW 22:54:05 10° N night (unlit)
14 Dec - 05:41:28 10° NNW 05:45:34 36° NE 05:49:54 10° ESE visible
14 Dec - 07:23:18 10° NW 07:27:06 27° WSW 07:31:06 10° S visible
14 Dec - 20:11:58 10° SE 20:14:22 15° ESE 20:16:43 10° ENE night (unlit)
14 Dec - 21:51:16 10° SW 21:55:32 57° NW 21:59:43 10° NNE night (unlit)
15 Dec - 04:47:21 10° N 04:50:29 19° NE 04:53:44 10° E visible
15 Dec - 06:28:04 10° NW 06:32:30 64° WSW 06:37:13 10° SSE visible
15 Dec - 20:56:31 10° SSW 21:00:47 58° ESE 21:04:57 10° NE night (unlit)
15 Dec - 22:39:48 10° W 22:42:47 18° NW 22:45:44 10° N night (unlit)
